This demonstration page uses our WeatherBlox Daily Observations layout. Learn more.

Left ArrowRight Arrow

Hourly Observations for May 19, 2015

Temp ( °F °C ) Dew Point ( °F °C ) Humidity (%) Winds ( mph kmh ) Pressure ( in mb ) Visibility ( mi km ) Precip ( " mm )
12:51 am 00:51 Clear 66 18.9 23 -5 19 19 NW 9 15 29.81 1009 10 16 0.00 0.00
1:51 am 01:51 Clear 63 17.2 27 -2.8 26 26 WNW 10 17 29.81 1009 10 16 0.00 0.00
2:51 am 02:51 Clear 59 15 26 -3.3 28 28 Calm 29.81 1010 10 16 0.00 0.00
3:51 am 03:51 Clear 58 14.4 20 -6.7 23 23 Calm 29.82 1010 10 16 0.00 0.00
4:51 am 04:51 Clear 55 12.8 20 -6.7 25 25 Calm 29.84 1010 10 16 0.00 0.00
5:51 am 05:51 Sunny 53 11.7 22 -5.6 30 30 Calm 29.87 1011 10 16 0.00 0.00
6:51 am 06:51 Sunny 61 16.1 17 -8.3 18 18 W 7 11 29.88 1012 10 16 0.00 0.00
7:51 am 07:51 Sunny 66 18.9 19 -7.2 16 16 WNW 6 9 29.88 1012 10 16 0.00 0.00
8:51 am 08:51 Sunny 71 21.7 27 -2.8 19 19 WNW 12 19 29.88 1012 10 16 0.00 0.00
9:51 am 09:51 Sunny 74 23.3 23 -5 15 15 WNW 8 13 29.88 1012 10 16 0.00 0.00
10:51 am 10:51 Sunny 75 23.9 22 -5.6 14 14 VRB 3 6 29.87 1012 10 16 0.00 0.00
11:51 am 11:51 Sunny 79 26.1 21 -6.1 11 11 undefined N/A 29.85 1011 10 16 0.00 0.00
12:51 pm 12:51 Sunny 78 25.6 23 -5 13 13 VRB 3 6 29.84 1010 10 16 0.00 0.00
1:51 pm 13:51 Sunny 81 27.2 23 -5 12 12 W 9 15 29.81 1010 10 16 0.00 0.00
2:51 pm 14:51 Sunny 81 27.2 20 -6.7 10 10 VRB 5 7 29.80 1009 10 16 0.00 0.00
3:51 pm 15:51 Sunny 80 26.7 19 -7.2 10 10 VRB 3 6 29.79 1009 10 16 0.00 0.00
4:51 pm 16:51 Sunny 82 27.8 17 -8.3 9 9 Calm 29.78 1008 10 16 0.00 0.00
5:51 pm 17:51 Sunny 82 27.8 17 -8.3 9 9 N 15 24 29.77 1008 10 16 0.00 0.00
6:51 pm 18:51 Sunny 78 25.6 22 -5.6 12 12 NNW 16 26 29.78 1008 10 16 0.00 0.00
7:51 pm 19:51 Clear 74 23.3 22 -5.6 14 14 NW 12 19 29.80 1009 10 16 0.00 0.00
8:51 pm 20:51 Clear 71 21.7 23 -5 16 16 NW 12 19 29.81 1010 10 16 0.00 0.00
9:51 pm 21:51 Clear 66 18.9 22 -5.6 19 19 WNW 7 11 29.84 1011 10 16 0.00 0.00
10:51 pm 22:51 Clear 63 17.2 24 -4.4 23 23 WNW 8 13 29.85 1011 10 16 0.00 0.00
11:51 pm 23:51 Clear 59 15 23 -5 25 25 N 5 7 29.85 1011 10 16 0.00 0.00

Powered by AerisWeather